Other Public Products
Issued by NWS Grand Forks, ND

Home | Current Version | Previous Version | Text Only | Print | Product List | Glossary On
Versions: 1 2 3 4 5 6 7 8 9 10 11 12 13 14 15 16 17 18 19 20 21 22 23 24 25 26 27 28 29 30 31 32 33 34 35 36 37 38 39 40 41 42 43 44 45 46 47 48 49 50
000
FPUS83 KFGF 260831
OPUFGF
PRAIRIE TO PINES WEATHER ROUNDUP
NATIONAL WEATHER SERVICE EASTERN NORTH DAKOTA/GRAND FORKS ND
300 AM CDT SUN APR 26 2015

 **SATELLITE DATA USED TO AUGMENT SKY COVER AT AUTOMATED STATIONS**
 *****  WEATHER ACROSS EASTERN NORTH DAKOTA  *****

CITY           SKY/WX    TMP DP  RH WIND       PRES   REMARKS
GRAND FORKS    CLEAR     40  29  64 S6        30.02R
GRAND FORKS AF CLEAR     33  28  80 SW3       30.02R
GRAND CITY NWS   N/A     36 N/A N/A SW5         N/A
BUXTON           N/A     42  30  61 CALM        N/A
DEVILS LAKE    CLOUDY    45  37  76 SE8       29.99R
FARGO          CLEAR     44  29  55 SE9       30.02R
WAHPETON ARPT  SUNNY     37  28  70 E7        30.03R
$$

 *****  WEATHER ACROSS CENTRAL AND WESTERN NORTH DAKOTA  *****

CITY           SKY/WX    TMP DP  RH WIND       PRES   REMARKS
JAMESTOWN      CLOUDY    47  40  76 E5        29.98R
BISMARCK       LGT RAIN  47  45  93 CALM      29.96R FOG
MINOT          CLOUDY    47  41  80 SE8       29.92R
MINOT AFB      CLOUDY    47  47  99 S12       29.92R
GARRISON         N/A     46  43  89 SE8       29.92S
WILLISTON      PTCLDY    38  35  89 W7        29.92R
DICKINSON      CLOUDY    43  41  93 W8        29.90S
HETTINGER      CLOUDY    43  41  93 NW7       29.93R
$$

 *****  OTHER OBSERVATIONS NORTHEAST NORTH DAKOTA  *****

CITY           SKY/WX    TMP DP  RH WIND       PRES   REMARKS
WALHALLA       FAIR      36  36 100 CALM      30.02S
LANGDON        FAIR      37  34  87 SE9       30.01R
CAVALIER       FAIR      39  30  70 SE5       30.02S
GRAFTON        FAIR      36  28  75 E7        30.03S
CANDO          CLOUDY    46  39  76 E6        29.99S
FORT TOTTEN      N/A     48  41  76 S7        29.95S
ROLLA          CLOUDY    46  41  81 S7        29.99R
RUGBY          NOT AVBL
 ***** THE ABOVE OBSERVATIONS ARE NON NWS ARE NOT QUALITY
        CONTROLLED AND MAY MIS-REPORT RAIN FOR SNOW...
$$

 *****  OTHER OBSERVATIONS SOUTHEAST NORTH DAKOTA *****

CITY           SKY/WX    TMP DP  RH WIND       PRES   REMARKS
COOPERSTOWN    NOT AVBL
VALLEY CITY    CLOUDY    39  39 100 SE6       30.00S
OAKES            N/A     46  43  87 E9G21     29.99S
GWINNER        MOSUNNY   37  37 100 E7        30.02S
SHEYENNE NWR     N/A     34  31  90 SE3       29.95
BUFFALO        NOT AVBL
WYNDMERE       NOT AVBL
 ***** THE ABOVE OBSERVATIONS ARE NON NWS ARE NOT QUALITY
       CONTROLLED AND MAY MIS-REPORT RAIN FOR SNOW...
$$

  *****  WEATHER ACROSS NORTHERN MINNESOTA  *****

CITY           SKY/WX    TMP DP  RH WIND       PRES   REMARKS
FLAG ISLAND    CLEAR     45  25  45 E8        30.06S
WARROAD        CLEAR     34  30  86 E5        30.06S
ROSEAU         CLEAR     34  28  80 CALM      30.06R
HALLOCK        CLEAR     45  27  49 SE8       30.04R
THF RVR FALLS  CLEAR     39  28  65 E5        30.05R
HALSTAD          N/A     34  25  69 SE9         N/A
FOSSTON        CLEAR     39  27  60 SE5       30.05R
BAUDETTE       CLEAR     35  27  72 E6        30.06S
WASKISH        CLEAR     30  27  86 CALM      30.06S
CROOKSTON      CLEAR     37  28  70 E3        30.05R
$$
  *****  WEATHER ACROSS CENTRAL AND WEST MINNESOTA  *****

CITY           SKY/WX    TMP DP  RH WIND       PRES   REMARKS
BEMIDJI        CLEAR     36  24  64 E3        30.05R
PARK RAPIDS    CLEAR     37  13  37 CALM      30.04R
WADENA         CLEAR     34  18  51 CALM      30.05R
DETROIT LAKES  CLEAR     41  19  42 SE6       30.06R
MOORHEAD       CLEAR     39  28  65 SE5       30.04R
FERGUS FALLS   FAIR      43  10  26 E8        30.05R
ELBOW LAKE     FAIR      40  24  52 E10       30.02S
MORRIS MN      CLEAR     36  28  75 E8        30.02S
STAPLES        CLEAR     34   9  35 CALM      30.05S
WHEATON        CLEAR     30  28  93 E6        30.04S WCI  24
$$
  *****  WEATHER ELSEWHERE ACROSS MINNESOTA  *****

CITY           SKY/WX    TMP DP  RH WIND       PRES   REMARKS
DULUTH         CLEAR     32  16  51 NE5       30.07R
INTRNTL FALLS  CLEAR     27  21  78 CALM      30.08R
ELY            CLEAR     23  18  80 CALM      30.09S
CLOQUET        CLEAR     28  16  59 CALM      30.06S
BRAINERD       CLEAR     29  19  66 NE6       30.05S WCI  23
HIBBING        CLEAR     22  16  78 NW5       30.08R WCI  16
ALEXANDRIA     CLEAR     38  17  42 E10       30.04R
SAINT CLOUD    CLEAR     35  21  56 NE6       30.03S
MINNEAPOLIS    CLEAR     41  20  43 NE7       30.01S
$$

  *****  WEATHER ACROSS SOUTH DAKOTA  *****

CITY           SKY/WX    TMP DP  RH WIND       PRES   REMARKS
SIOUX FALLS    PTCLDY    40  36  86 CALM      29.97R
BROOKINGS      CLEAR     37  36  93 E5        29.98F
WATERTOWN      PTCLDY    38  36  92 NE3       29.98S
HURON          PTCLDY    45  39  79 SE8       29.96R
SISSETON         N/A     41  34  76 SE5       30.01S
ABERDEEN       CLOUDY    50  40  68 E7        29.97S
MITCHELL       PTCLDY    44  41  89 SE5       29.96R
PIERRE         CLOUDY    51  43  74 SE13      29.91R
MOBRIDGE       CLOUDY    52  43  71 SE14      29.91R
RAPID CITY     CLOUDY    44  41  89 N20       29.88S
$$

  *****  SOME WEATHER IN NEARBY STATES *****

CITY           SKY/WX    TMP DP  RH WIND       PRES   REMARKS
GLASGOW MT     CLOUDY    38  34  85 NW10      29.95R
GREAT FALLS MT CLOUDY    33  28  81 NE14      30.00R WCI  23
CHEYENNE WY    CLOUDY    42  40  92 E9        29.82S
SCOTTSBLUFF NE LGT RAIN  49  32  52 E15       29.77F
OMAHA NE       PTCLDY    46  41  82 NE6       29.94R
DES MOINES IA  CLOUDY    48  38  68 E8        29.94R
DAVENPORT IA   CLEAR     37  32  82 NE8       29.92S
CHICAGO IL     CLEAR     37  29  72 N7        29.89R
EAU CLAIRE WI  CLEAR     34  23  64 NE6       30.01R
LA CROSSE WI   CLEAR     37  26  64 CALM      30.00R
$$

  *****  SOME NATIONAL WEATHER *****

CITY           SKY/WX    TMP DP  RH WIND       PRES   REMARKS
LA GUARDIA NY  MOCLDY    46  33  60 NE6       29.67S
RALEIGH NC     FOG       46  44  93 NE8       29.62S VSB 1/2
ATLANTA GA     MOCLDY    65  62  90 W9        29.63F
NEW ORLEANS LA PTCLDY    68  65  90 CALM      29.74S
OKLAHOMA CITY  PTCLDY    63  53  70 E15       29.67F
ALBUQUERQUE NM CLOUDY    59  28  30 S7        29.78F
SALT LAKE CITY LGT RAIN  42  39  89 SW9       29.74S
LOS ANGELES CA CLEAR     58  50  75 CALM      29.92S
BOISE ID       CLEAR     40  31  70 NW8       29.94R
SEATTLE WA     CLEAR     44  37  76 SE7       30.11R
$$

*** WEATHER ACROSS MANITOBA...SASKATCHEWAN AND ONTARIO ***
                ***ONTARIO***

CITY           SKY/WX    TMP DP  RH WIND       PRES   REMARKS
GERALDTON      CLOUDY    32  27  80 N6        30.11R
THUNDER BAY    CLEAR     25  21  86 W5        30.11R WCI  19
SIOUX LOOKOUT  CLEAR     30  16  55 E5        30.14R
TORONTO        PTCLDY    36  28  75 N14       29.80S
BIG TROUT LK   CLEAR     25  25 100 NE5       30.24R WCI  19
PICKLE LAKE    NOT AVBL
DRYDEN         CLEAR     32  23  69 NE5       30.11R
KENORA         PTCLDY    39  23  52 E9        30.09S
$$
                *** MANITOBA***

CITY           SKY/WX    TMP DP  RH WIND       PRES   REMARKS
BRANDON        CLOUDY    48  41  76 SE7       29.97R
DAUPHIN        MOCLDY    46  36  66 SE10      29.96F
ISLAND LAKE    PTCLDY    32  18  55 SE7       30.19R
PILOT MOUND      N/A     37  34  87 SE6         N/A
THE PAS        LGT RAIN  36  30  80 E6        30.08S
THOMPSON       CLOUDY    28  28 100 N5        30.19S WCI  23
WINNIPEG       CLEAR     45  28  53 SE13      30.05
LYNN LAKE      CLOUDY    27  19  74 NE3       30.22R
CHURCHILL      CLEAR     18  16  93 SE6       30.32R WCI   9
GILLAM         CLOUDY    32  21  64 E3        30.24R
$$
                ***SASKATCHEWAN***

CITY           SKY/WX    TMP DP  RH WIND       PRES   REMARKS
ESTEVAN        LGT RAIN  45  43  93 SW10      29.88R
KINDERSLEY     LGT SNOW  30  28  93 N12       29.99R WCI  21
LLOYDMINSTER   MOCLDY    32  18  55 N6        30.04S
PRINCE ALBERT  LGT SNOW  32  32 100 NE16G22   29.97F WCI  21
REGINA         CLOUDY    37  36  93 SW17G25   29.83R


USA.gov is the U.S. government's official web portal to all federal, state and local government web resources and services.